Tracking 21473 objects as of 20-Sep-2020
HD Live streaming from Space Station
objects crossing your sky now

COSMOS 1158

Track COSMOS 1158 now!
10-day predictions
COSMOS 1158 is classified as:


NORAD ID: 11693
Int'l Code: 1980-012C
Perigee: 1,440.9 km
Apogee: 1,483.1 km
Inclination: 74.0 °
Period: 115.0 minutes
Semi major axis: 7832 km
RCS: 0.707 m2 (medium)
Launch date: February 11, 1980
Source: Commonwealth of Independent States (former USSR) (CIS)
Launch site: PLESETSK MISSILE AND SPACE COMPLEX (PKMTR)
aabbcc
Your satellite tracking list
Your tracking list is empty




NASA's NSSDC Master Catalog

Two Line Element Set (TLE):
1 11693U 80012C   20263.80335910 +.00000006 +00000-0 +14023-3 0  9992
2 11693 074.0209 142.4117 0026937 071.5404 354.3596 12.52309701856275
Source of the keplerian elements: AFSPC